Flag for Cameroon Weather past 2 weeks in Bamenda, Cameroon

Now
75 °F

Light rain. Mostly cloudy.


Feels Like: 74 °F
Forecast: 63 / 76 °F
Wind: 7 mph from Southwest

Location: Douala Obs.

Current Time: Aug 22, 2014 at 1:23:45 PM

Latest Report: Aug 22, 2014 at 12:00 PM


Visibility: 5 mi

Pressure: 30.01 "Hg

Humidity: 94%

Dew point: 73 °F

Location of BamendaLocation

Historic Weather in Bamenda — Graph

°F

Bamenda temperature yesterday

Maximum temperature yesterday: 79 °F (at 1:00 PM)
Minimum temperature yesterday: 73 °F (at 11:00 PM)
Average temperature yesterday: 76 °F

Past Weeks' High & Low Weather Summary

 TemperatureHumidityPressure
High86 °F (Aug 10, 2:00 PM)100% (Aug 7, 7:00 PM)30.04 "Hg (Aug 7, 7:00 PM)
Low73 °F (Aug 8, 7:00 AM)70% (Aug 9, 1:00 PM)29.86 "Hg (Aug 11, 5:00 PM)
Average77 °F93%29.94 "Hg
* Reported Aug 7 12:00 Noon — Aug 22 12:00 Noon, Bamenda, Weather by CustomWeather, © 2014

Note: Actual official high and low records may vary slightly from our data, if they occured in-between our weather recording intervals... More about our weather records

Advertising

Bamenda weather history for previous 24 hours

 ConditionsComfort  
Time TempWeatherWind HumidityBarometerVisibility
12:00 PM
Aug 22
75 °FLight rain. Mostly cloudy.7 mph94%30.01 "Hg5 mi
11:00 AM77 °FLight rain. Mostly cloudy.7 mph89%30.01 "HgN/A
10:00 AM73 °FLight rain. Mostly cloudy.No wind94%30.04 "Hg5 mi
9:00 AM73 °FCloudy.No wind94%30.01 "Hg5 mi
8:00 AM73 °FCloudy.No wind94%29.98 "Hg5 mi
7:00 AM73 °FLight rain. Cloudy.5 mph94%29.95 "Hg5 mi
6:00 AM73 °FDrizzle. Mostly cloudy.No wind100%29.92 "Hg4 mi
5:00 AM73 °FDrizzle. Mostly cloudy.No wind100%29.92 "Hg2 mi
4:00 AM73 °FDrizzle. Mostly cloudy.No wind100%29.92 "Hg2 mi
3:00 AM73 °FDrizzle. Mostly cloudy.5 mph100%29.92 "Hg2 mi
2:00 AM73 °FDrizzle. Mostly cloudy.7 mph94%29.92 "Hg2 mi
1:00 AM73 °FDrizzle. Mostly cloudy.7 mph100%29.92 "Hg2 mi
12:00 AM73 °FDrizzle. Mostly cloudy.No wind100%29.98 "Hg1 mi
11:00 PM
Aug 21
73 °FDrizzle. Mostly cloudy.No wind100%29.95 "Hg5 mi
10:00 PM75 °FDrizzle. Overcast.No wind94%29.98 "Hg5 mi
9:00 PM75 °FDrizzle. Overcast.No wind94%29.95 "Hg4 mi
8:00 PM75 °FMostly cloudy.No wind94%29.95 "Hg5 mi
7:00 PM75 °FMostly cloudy.No wind94%29.92 "Hg4 mi
6:00 PM77 °FMostly cloudy.5 mph89%29.92 "HgN/A
5:00 PM77 °FMore clouds than sun.7 mph94%29.92 "HgN/A
4:00 PM77 °FMostly cloudy.7 mph89%29.92 "HgN/A
3:00 PM77 °FDrizzle. Partly sunny.7 mph89%29.92 "HgN/A
2:00 PM77 °FLow clouds.9 mph94%29.92 "HgN/A
1:00 PM79 °FMostly cloudy.12 mph89%29.95 "HgN/A
Weather by CustomWeather, © 2014

See weather overviewHow to use our weather pages